Weather History for Bennington, VT

Change the Weather History Date:

Friday, November 1, 2013

  Actual Average Record
Temperature  
Mean Temperature 59 °F 43 °F  
Max Temperature 67 °F 53 °F 71 °F (2003)
Min Temperature 50 °F 32 °F 26 °F (2002)
Degree Days  
Heating Degree Days 6 22  
Month to date heating degree days 6 22  
Since 1 July heating degree days 760 843  
Cooling Degree Days 0 0  
Month to date cooling degree days 0 0  
Year to date cooling degree days 503 313  
Growing Degree Days 10 (Base 50)    
Moisture  
Dew Point 49 °F    
Average Humidity 62    
Maximum Humidity 78    
Minimum Humidity 46    
Precipitation  
Precipitation 0.45 in 0.11 in 0.45 in (2013)
Month to date precipitation 0.45 0.11  
Year to date precipitation 39.74 34.91  
Sea Level Pressure  
Sea Level Pressure 29.50 in    
Wind  
Wind Speed 15 mph (SSW)    
Max Wind Speed 35 mph    
Max Gust Speed 55 mph    
Visibility 8 miles    
Events Rain    
T = Trace of Precipitation, MM = Missing Value Source: NWS Daily Summary

Daily Weather History Graph

Daily Weather History Graph

Search for Another Location

Airport:

Trip Planner

Search our weather history database for the weather conditions in past years. The results will help you decide how hot, cold, wet, or windy it might be!

Date:

Astronomy

Nov. 01, 2013 Rise Set
Actual Time 7:27 AM EDT 5:44 PM EDT
Civil Twilight 6:58 AM EDT 6:14 PM EDT
Nautical Twilight 6:24 AM EDT 6:47 PM EDT
Astronomical Twilight 5:51 AM EDT 7:20 PM EDT
Moon 5:14 AM EDT (11/1) 4:38 PM EDT (11/1)
Length of Visible Light 11h 16m
Length of Day
10h 17m
Waning Crescent, 4% of the Moon is Illuminated
Nov 1
Waning Crescent
Nov 3
New
Nov 10
First Quarter
Nov 17
Full
Nov 25
Last Quarter

Hourly Weather History & Observations

Time (EDT) Temp. Dew Point Humidity Pressure Visibility Wind Dir Wind Speed Gust Speed Precip Events Conditions
12:54 AM 62.1 °F 55.0 °F 78% 29.64 in 7.0 mi SSW 16.1 mph 32.2 mph 0.04 in Rain Light Rain
1:54 AM 62.1 °F 54.0 °F 75% 29.60 in 10.0 mi South 13.8 mph 26.5 mph 0.02 in Rain Light Rain
2:15 AM 60.8 °F 53.6 °F 77% 29.58 in 7.0 mi South 19.6 mph 40.3 mph 0.02 in Rain Light Rain
2:54 AM 62.1 °F 55.0 °F 78% 29.55 in 6.0 mi South 31.1 mph 42.6 mph 0.06 in Rain Light Rain
3:54 AM 62.1 °F 55.0 °F 78% 29.52 in 5.0 mi South 26.5 mph 41.4 mph 0.11 in Rain Light Rain
4:49 AM 64.4 °F 55.4 °F 73% 29.50 in 10.0 mi South 25.3 mph 40.3 mph 0.00 in   Overcast
4:54 AM 64.9 °F 55.0 °F 70% 29.49 in 10.0 mi SSW 31.1 mph 46.0 mph 0.00 in   Overcast
5:13 AM 64.4 °F 55.4 °F 73% 29.49 in 10.0 mi South 23.0 mph 38.0 mph N/A   Overcast
5:54 AM 64.9 °F 57.0 °F 75% 29.46 in 10.0 mi South 23.0 mph 35.7 mph 0.01 in Rain Light Rain
6:54 AM 66.0 °F - N/A% 29.44 in 9.0 mi South 20.7 mph 43.7 mph 0.01 in Rain Light Rain
7:19 AM 64.4 °F - N/A% 29.44 in 7.0 mi SSW 24.2 mph 48.3 mph 0.02 in Rain Light Rain
7:54 AM 66.0 °F - N/A% 29.44 in 10.0 mi South 21.9 mph 42.6 mph 0.04 in   Overcast
8:54 AM 66.0 °F - N/A% 29.42 in 10.0 mi South 19.6 mph 44.9 mph 0.00 in   Overcast
9:54 AM 66.0 °F - N/A% 29.40 in 4.0 mi South 26.5 mph 43.7 mph 0.02 in Rain Light Rain
9:58 AM 66.2 °F - N/A% 29.42 in 2.5 mi SSW 15.0 mph 43.7 mph 0.01 in Rain Light Rain
10:05 AM 66.2 °F - N/A% 29.41 in 3.0 mi SSW 23.0 mph 35.7 mph 0.02 in Rain Light Rain
10:36 AM 64.4 °F - N/A% 29.47 in 2.0 mi WSW 16.1 mph 28.8 mph 0.08 in Rain Rain
10:49 AM 64.4 °F - N/A% 29.47 in 5.0 mi WSW 11.5 mph 25.3 mph 0.10 in Rain Light Rain
10:54 AM 63.0 °F - N/A% 29.46 in 5.0 mi WSW 9.2 mph 25.3 mph 0.10 in Rain Light Rain
11:13 AM 62.6 °F - N/A% 29.47 in 2.0 mi South 5.8 mph - 0.05 in Rain Rain
11:23 AM 62.6 °F - N/A% 29.46 in 5.0 mi Variable 5.8 mph 18.4 mph 0.05 in Rain Light Rain
11:54 AM 62.1 °F - N/A% 29.43 in 10.0 mi South 16.1 mph 24.2 mph 0.08 in Rain Light Rain
12:54 PM 64.0 °F - N/A% 29.41 in 10.0 mi SSW 11.5 mph 21.9 mph 0.00 in   Partly Cloudy
1:54 PM 64.9 °F 52.0 °F 63% 29.41 in 10.0 mi SSW 17.3 mph 24.2 mph N/A   Clear
2:54 PM 66.0 °F 51.1 °F 59% 29.42 in 10.0 mi SSW 18.4 mph 27.6 mph N/A   Clear
3:54 PM 66.0 °F 50.0 °F 56% 29.44 in 10.0 mi SW 10.4 mph 18.4 mph N/A   Scattered Clouds
4:54 PM 64.9 °F 48.9 °F 56% 29.47 in 10.0 mi SSW 8.1 mph - N/A   Scattered Clouds
5:54 PM 63.0 °F 46.0 °F 54% 29.49 in 10.0 mi SSW 5.8 mph - N/A   Partly Cloudy
6:54 PM 61.0 °F 44.1 °F 54% 29.53 in 10.0 mi Calm Calm - N/A   Overcast
7:54 PM 60.1 °F 39.0 °F 46% 29.58 in 10.0 mi West 8.1 mph - N/A   Partly Cloudy
8:54 PM 57.0 °F 39.9 °F 53% 29.62 in 10.0 mi West 6.9 mph 17.3 mph N/A   Clear
9:54 PM 54.0 °F 39.9 °F 59% 29.66 in 10.0 mi WSW 8.1 mph - N/A   Clear
10:54 PM 53.1 °F 39.9 °F 61% 29.69 in 10.0 mi WSW 9.2 mph - N/A   Partly Cloudy
11:54 PM 52.0 °F 39.9 °F 63% 29.70 in 10.0 mi SSW 5.8 mph - N/A   Overcast